Flag for Germany Weather past 2 weeks in Hildesheim, Lower Saxony, Germany

Now
52 °F

Drizzle. More clouds than sun.


Feels Like: 46 °F
Forecast: 40 / 43 °F
Wind: 17 mph from Southwest

Location: Braunschweig

Current Time: Dec 19, 2014 at 10:11:45 AM

Latest Report: Dec 19, 2014 at 9:50 AM


Visibility: 4 mi

Pressure: 29.71 "Hg

Humidity: 100%

Dew point: 52 °F

Location of HildesheimLocation

Historic Weather in Hildesheim — Graph

°F

Hildesheim temperature yesterday

Maximum temperature yesterday: 54 °F (at 6:50 PM)
Minimum temperature yesterday: 48 °F (at 6:50 AM)
Average temperature yesterday: 51 °F

Past Weeks' High & Low Weather Summary

 TemperatureHumidityPressure
High54 °F (Dec 18, 6:50 PM)100% (Dec 4, 8:20 AM)30.36 "Hg (Dec 4, 8:20 AM)
Low30 °F (Dec 4, 8:20 AM)65% (Dec 10, 6:50 AM)29.36 "Hg (Dec 12, 2:20 PM)
Average41 °F90%29.88 "Hg
* Reported Dec 4 8:20 AM — Dec 19 8:50 AM, Hildesheim, Weather by CustomWeather, © 2014

Note: Actual official high and low records may vary slightly from our data, if they occured in-between our weather recording intervals... More about our weather records

Advertising

Hildesheim weather history for previous 24 hours

 ConditionsComfort  
Time TempWeatherWind HumidityBarometerVisibility
8:50 AM
Dec 19
52 °FMore clouds than sun.17 mph100%29.71 "Hg6 mi
8:20 AM52 °FDrizzle. Mostly cloudy.16 mph100%29.71 "Hg4 mi
7:50 AM52 °FPartly cloudy.14 mph100%29.71 "HgN/A
7:20 AM52 °FPassing clouds.15 mph100%29.71 "Hg5 mi
6:50 AM52 °FDrizzle. Overcast.18 mph100%29.74 "Hg4 mi
9:50 PM
Dec 18
54 °FPassing clouds.21 mph100%29.71 "Hg5 mi
9:20 PM54 °FPartly cloudy.17 mph100%29.71 "Hg4 mi
8:50 PM54 °FPassing clouds.17 mph100%29.71 "HgN/A
8:20 PM54 °FPassing clouds.20 mph100%29.71 "HgN/A
7:50 PM54 °FDrizzle. Mostly cloudy.16 mph100%29.71 "HgN/A
7:20 PM54 °FDrizzle. Mostly cloudy.18 mph100%29.71 "Hg2 mi
6:50 PM54 °FDrizzle. Overcast.14 mph100%29.71 "HgN/A
6:20 PM52 °FDrizzle. Overcast.13 mph100%29.71 "HgN/A
5:50 PM52 °FDrizzle. Low clouds.12 mph100%29.71 "HgN/A
5:20 PM50 °FDrizzle. Mostly cloudy.13 mph100%29.71 "HgN/A
4:50 PM50 °FDrizzle. Mostly cloudy.13 mph100%29.71 "HgN/A
4:20 PM50 °FDrizzle. Mostly cloudy.12 mph100%29.71 "Hg6 mi
3:50 PM50 °FDrizzle. Fog.12 mph100%29.74 "Hg2 mi
3:20 PM52 °FOvercast.12 mph100%29.74 "HgN/A
2:50 PM50 °FDrizzle. Low clouds.13 mph100%29.74 "HgN/A
2:20 PM50 °FLow clouds.14 mph100%29.74 "HgN/A
1:50 PM50 °FMostly cloudy.14 mph100%29.74 "HgN/A
1:20 PM52 °FOvercast.14 mph94%29.74 "HgN/A
12:50 PM52 °FPartly sunny.14 mph94%29.77 "HgN/A
12:20 PM52 °FMore clouds than sun.14 mph94%29.77 "HgN/A
11:50 AM52 °FPartly sunny.16 mph94%29.77 "HgN/A
11:20 AM52 °FBroken clouds.14 mph94%29.77 "HgN/A
10:50 AM52 °FBroken clouds.10 mph88%29.80 "HgN/A
10:20 AM50 °FOvercast.12 mph94%29.80 "HgN/A
Weather by CustomWeather, © 2014

See weather overviewHow to use our weather pages